Location: Newark
(40.7360°N, 74.1730°W)
Time: 09:17:11
(UTC-05:00)

Amateur Radio Satellites - All Passes

Search period start: 22 December 2014 08:47
Search period end: 23 December 2014 08:47
Location: Newark, 40.7360°N, 74.1730°W

Satellite Date Start Highest point End Downlink Frequencies (MHz)
Time Altitude Azimuth
UWE-3 22 Dec 08:47:28 08:49:03 12° 90° (E) 08:50:38 435.000/436.395/437.385
DX 1 22 Dec 08:56:34 08:59:32 18° 94° (E) 09:02:30 434.975-435.025
TIGRISAT 22 Dec 09:02:08 09:05:48 27° 68° (ENE) 09:09:32 435.000
BUGSAT 1 22 Dec 09:02:37 09:04:34 13° 64° (ENE) 09:06:31 437.445
DUCHIFAT 1 22 Dec 09:10:49 09:13:58 21° 67° (ENE) 09:17:07 145.980
Oscar 11 22 Dec 09:15:07 09:19:14 39° 98° (E) 09:23:18 145.826/435.025
YUBILEINY 22 Dec 09:15:34 09:22:20 24° 66° (ENE) 09:29:02 435.215
AAUSAT CUBESAT 2 22 Dec 09:17:49 09:22:05 89° 102° (ESE) 09:26:19 437.432
CUSAT 1 22 Dec 09:22:00 09:25:43 84° 279° (W) 09:30:49 437.405
UKube-1 22 Dec 09:24:54 09:28:53 35° 98° (E) 09:32:51 .
QB50P2 22 Dec 09:25:04 09:28:45 30° 70° (ENE) 09:32:28 145.880/145.840
BRITE-PL 22 Dec 09:28:57 09:33:28 44° 287° (WNW) 09:38:19 437.365/2234.400
UNISAT 6 22 Dec 09:31:31 09:35:47 56° 73° (ENE) 09:40:12 437.425
RS-15 22 Dec 09:32:49 09:39:58 20° 100° (E) 09:47:04 29.354- 29.394
POLYITAN 1 22 Dec 09:34:18 09:38:12 38° 71° (ENE) 09:42:07 437.675
NANOSAT C BR1 22 Dec 09:34:55 09:38:48 38° 71° (ENE) 09:42:43 145.865
CANX-2 22 Dec 09:38:12 09:42:03 32° 290° (WNW) 09:45:52 2200.000
GOMX 1 22 Dec 09:46:36 09:51:06 41° 288° (WNW) 09:55:53 467.674
CUBEBUG 2 22 Dec 09:46:59 09:51:36 60° 100° (E) 09:56:18 437.445
QB50P1 22 Dec 09:49:24 09:53:30 56° 74° (ENE) 09:57:39 145.935-145.965
ZACube-1 22 Dec 09:49:56 09:54:19 46° 99° (E) 09:58:44 437.345
COMPASS 1 22 Dec 09:54:55 09:58:40 31° 290° (WNW) 10:02:24 437.405
VELOX 1 22 Dec 09:58:22 10:02:12 28° 96° (E) 10:06:01 145.980
DELFI C3 22 Dec 10:00:06 10:04:13 73° 284° (WNW) 10:08:18 145.870
50 SAT 22 Dec 10:00:54 10:04:25 26° 96° (E) 10:07:55 437.505
SEEDS 22 Dec 10:03:20 10:06:39 22° 292° (WNW) 10:09:57 437.485
ANTELSAT 22 Dec 10:03:35 10:07:55 64° 259° (W) 10:12:24 437.575/2403.000
DOVE 4 22 Dec 10:03:47 10:08:12 37° 289° (WNW) 10:12:50 437.250
HO-68 22 Dec 10:06:30 10:13:01 40° 296° (WNW) 10:19:31 435.675
ESTCUBE 1 22 Dec 10:08:28 10:11:02 15° 92° (E) 10:13:35 437.505/2401.250
CUTE 1.7 + AOD 2 22 Dec 10:09:37 10:12:26 17° 294° (WNW) 10:15:14 437.475
CINEMA 3 22 Dec 10:15:47 10:20:19 44° 288° (WNW) 10:25:00 145.822/145.860
FUNcube-1 22 Dec 10:16:00 10:20:34 87° 103° (ESE) 10:25:10 145.935
POPSAT HIP 1 22 Dec 10:18:17 10:22:27 67° 258° (WSW) 10:26:40 437.405
O/OREOS (USA 219) 22 Dec 10:19:41 10:24:10 65° 251° (WSW) 10:28:39 437.305
UWE-3 22 Dec 10:21:24 10:26:00 70° 285° (WNW) 10:30:39 435.000/436.395/437.385
DANDE 22 Dec 10:23:53 10:26:55 22° 295° (WNW) 10:30:41 436.750
DX 1 22 Dec 10:31:52 10:35:56 39° 289° (WNW) 10:39:58 434.975-435.025
BUGSAT 1 22 Dec 10:35:40 10:39:39 51° 260° (W) 10:43:37 437.445
HUMSAT D 22 Dec 10:36:43 10:41:05 87° 103° (ESE) 10:45:27 437.325/437.525
TIGRISAT 22 Dec 10:38:45 10:42:28 27° 265° (W) 10:46:17 435.000
CUBEBUG 1 22 Dec 10:41:47 10:45:40 31° 97° (E) 10:49:32 437.445
AISAT 22 Dec 10:42:11 10:46:38 89° 104° (ESE) 10:51:06 437.250
DUCHIFAT 1 22 Dec 10:45:51 10:49:37 32° 263° (W) 10:53:25 145.980
Oscar 11 22 Dec 10:52:03 10:55:06 19° 294° (WNW) 10:58:08 145.826/435.025
QB50P2 22 Dec 11:01:24 11:04:41 22° 265° (W) 11:07:59 145.880/145.840
UKube-1 22 Dec 11:01:35 11:04:49 21° 294° (WNW) 11:08:02 .
UNISAT 6 22 Dec 11:10:57 11:12:58 13° 270° (W) 11:15:01 437.425
YUBILEINY 22 Dec 11:11:18 11:19:57 73° 266° (W) 11:28:35 435.215
POLYITAN 1 22 Dec 11:11:29 11:14:17 17° 267° (W) 11:17:07 437.675
NANOSAT C BR1 22 Dec 11:12:02 11:14:49 17° 267° (W) 11:17:38 145.865
CUBEBUG 2 22 Dec 11:25:10 11:27:49 15° 296° (WNW) 11:30:30 437.445
ZACube-1 22 Dec 11:27:15 11:30:20 18° 294° (WNW) 11:33:27 437.345
QB50P1 22 Dec 11:28:13 11:29:44 12° 269° (W) 11:31:16 145.935-145.965
TISAT 1 22 Dec 11:32:58 11:36:38 28° 96° (E) 11:40:17 437.305
VELOX 1 22 Dec 11:35:00 11:38:41 26° 292° (WNW) 11:42:21 145.980
50 SAT 22 Dec 11:36:07 11:39:32 25° 291° (WNW) 11:42:56 437.505
RS-15 22 Dec 11:39:40 11:50:37 87° 120° (ESE) 12:01:39 29.354- 29.394
SPROUT 22 Dec 11:42:15 11:46:11 34° 97° (E) 11:50:06 437.525
ESTCUBE 1 22 Dec 11:43:50 11:48:11 50° 287° (WNW) 11:52:30 437.505/2401.250
FUNcube-1 22 Dec 11:55:51 11:56:13 10° 299° (WNW) 11:56:35 145.935
ISS 22 Dec 12:12:40 12:15:38 31° 136° (SE) 12:18:36 145.825
BEESAT 3 22 Dec 12:13:08 12:16:57 40° 116° (ESE) 12:20:51 437.485
CUBEBUG 1 22 Dec 12:18:29 12:21:52 23° 293° (WNW) 12:25:15 437.445
Oscar 19 22 Dec 12:26:41 12:31:46 68° 74° (ENE) 12:36:55 437.125/150
PCSat 22 Dec 12:30:03 12:34:51 34° 110° (ESE) 12:39:41 145.827
AIST 2 22 Dec 12:31:24 12:34:55 26° 113° (ESE) 12:38:30 435.215
ITAMSAT 1 22 Dec 12:47:06 12:51:53 40° 69° (ENE) 12:56:41 435.822/435.867
Gurwin Techsat 1B 22 Dec 12:53:51 12:58:20 29° 66° (ENE) 13:02:51 435.225
BEESAT 2 22 Dec 12:54:28 12:58:35 81° 302° (WNW) 13:02:47 435.950
HORYU 2 22 Dec 13:03:57 13:05:31 12° 61° (ENE) 13:07:04 437.375
TISAT 1 22 Dec 13:08:56 13:12:20 24° 292° (WNW) 13:15:45 437.305
SWISSCUBE 22 Dec 13:11:10 13:15:49 52° 100° (E) 13:20:26 437.505
YUBILEINY 22 Dec 13:11:55 13:15:05 12° 286° (WNW) 13:18:14 435.215
ITUPSAT 1 22 Dec 13:12:28 13:17:06 48° 100° (E) 13:21:41 437.325
SPROUT 22 Dec 13:18:50 13:22:03 21° 293° (WNW) 13:25:17 437.525
AUBIESAT-1 22 Dec 13:24:59 13:27:47 17° 96° (E) 13:30:25 437.475
BEESAT 22 Dec 13:35:41 13:40:29 86° 104° (ESE) 13:45:14 436.000
ISS 22 Dec 13:49:09 13:52:11 33° 333° (NNW) 13:55:13 145.825
AO-7 22 Dec 13:50:32 13:57:30 31° 57° (ENE) 14:04:28 29.400- 29.500
M-CUBED/EXP-1 PRIME 22 Dec 13:51:14 13:55:15 39° 102° (ESE) 13:58:55 437.505
BEESAT 3 22 Dec 13:52:04 13:55:17 21° 314° (NW) 13:58:31 437.485
RS-15 22 Dec 13:55:02 14:04:28 32° 327° (NNW) 14:14:04 29.354- 29.394
STARS 22 Dec 14:00:11 14:03:34 21° 94° (E) 14:06:56 437.465
KKS-1 22 Dec 14:07:36 14:11:46 38° 98° (E) 14:15:56 437.445
Oscar 19 22 Dec 14:08:57 14:11:35 14° 270° (W) 14:14:14 437.125/150
AIST 2 22 Dec 14:09:36 14:13:25 32° 310° (NW) 14:17:18 435.215
PCSat 22 Dec 14:13:16 14:18:12 35° 308° (NW) 14:23:10 145.827
ITAMSAT 1 22 Dec 14:27:18 14:31:28 25° 265° (W) 14:35:40 435.822/435.867
Gurwin Techsat 1B 22 Dec 14:33:19 14:38:10 36° 263° (W) 14:43:02 435.225
BEESAT 2 22 Dec 14:36:09 14:37:32 11° 322° (NW) 14:38:56 435.950
HORYU 2 22 Dec 14:37:05 14:41:33 74° 258° (WSW) 14:46:03 437.375
SWISSCUBE 22 Dec 14:50:10 14:53:15 17° 297° (WNW) 14:56:20 437.505
ITUPSAT 1 22 Dec 14:51:21 14:54:36 19° 296° (WNW) 14:57:51 437.325
AUBIESAT-1 22 Dec 14:59:00 15:02:57 37° 295° (WNW) 15:06:35 437.475
GONETS M04 22 Dec 15:10:34 15:17:57 29° 68° (ENE) 15:25:14
BEESAT 22 Dec 15:16:20 15:17:35 11° 301° (WNW) 15:18:50 436.000
AIST 1 22 Dec 15:20:19 15:23:53 25° 89° (E) 15:27:27
M-CUBED/EXP-1 PRIME 22 Dec 15:26:54 15:29:55 19° 301° (WNW) 15:32:46 437.505
ISS 22 Dec 15:27:48 15:29:32 13° 352° (N) 15:31:15 145.825
JAS-2 22 Dec 15:30:55 15:38:04 48° 70° (ENE) 15:44:36 435.910
STARS 22 Dec 15:36:04 15:40:07 35° 290° (WNW) 15:44:09 437.465
AO-7 22 Dec 15:41:30 15:49:43 64° 256° (WSW) 15:58:02 29.400- 29.500
KKS-1 22 Dec 15:44:51 15:48:09 21° 294° (WNW) 15:51:28 437.445
Cubesat XI-IV 22 Dec 16:00:20 16:03:21 16° 60° (ENE) 16:06:22 437.490
RS-15 22 Dec 16:14:21 16:21:47 20° 2° (N) 16:29:23 29.354- 29.394
CUTE-I 22 Dec 16:31:13 16:35:41 28° 66° (ENE) 16:40:10 437.470
AIST 1 22 Dec 16:57:46 17:01:27 26° 285° (WNW) 17:05:08
ISS 22 Dec 17:05:08 17:07:10 15° 13° (NNE) 17:09:11 145.825
GONETS M04 22 Dec 17:06:45 17:15:19 61° 269° (W) 17:23:47
PRISM 22 Dec 17:07:34 17:09:29 13° 92° (E) 17:11:24 437.425
MOZHAYETS 4 22 Dec 17:08:07 17:12:46 77° 284° (WNW) 17:17:20
MaSat-1 22 Dec 17:08:52 17:10:59 27° 61° (ENE) 17:13:12 437.345
JAS-2 22 Dec 17:16:22 17:23:08 34° 264° (W) 17:29:25 435.910
Cubesat XI-IV 22 Dec 17:37:30 17:42:49 73° 257° (WSW) 17:48:09 437.490
STRAND 1 22 Dec 18:02:10 18:06:18 24° 95° (E) 18:10:24 437.568
CUTE-I 22 Dec 18:10:43 18:15:36 37° 262° (W) 18:20:30 437.470
CUSAT 1 22 Dec 18:18:07 18:23:16 18° 63° (ENE) 18:28:41 437.405
RS-15 22 Dec 18:28:58 18:38:57 35° 36° (NE) 18:49:14 29.354- 29.394
CUBESAT XI-V 22 Dec 18:37:16 18:41:51 68° 101° (E) 18:46:25 437.345
ISS 22 Dec 18:41:08 18:44:21 49° 32° (NNE) 18:47:31 145.825
PRISM 22 Dec 18:41:17 18:45:18 49° 287° (WNW) 18:49:16 437.425
HO-68 22 Dec 18:47:31 18:53:33 31° 61° (ENE) 18:59:35 435.675
CANX-2 22 Dec 18:56:31 18:59:12 16° 65° (ENE) 19:01:53 2200.000
BRITE-PL 22 Dec 19:03:22 19:06:15 19° 66° (ENE) 19:09:09 437.365/2234.400
COMPASS 1 22 Dec 19:12:00 19:14:34 16° 65° (ENE) 19:17:09 437.405
GOMX 1 22 Dec 19:18:30 19:21:27 19° 66° (ENE) 19:24:26 467.674
DANDE 22 Dec 19:19:13 19:26:33 41° 73° (ENE) 19:34:35 436.750
SEEDS 22 Dec 19:19:47 19:23:07 23° 68° (ENE) 19:26:28 437.485
CUTE 1.7 + AOD 2 22 Dec 19:25:46 19:29:30 30° 70° (ENE) 19:33:16 437.475
DOVE 4 22 Dec 19:33:16 19:36:20 20° 67° (ENE) 19:39:27 437.250
STRAND 1 22 Dec 19:40:53 19:45:35 39° 291° (WNW) 19:50:16 437.568
CINEMA 3 22 Dec 19:42:34 19:45:04 16° 64° (ENE) 19:47:37 145.822/145.860
DX 1 22 Dec 19:52:43 19:55:25 16° 64° (ENE) 19:58:08 434.975-435.025
CUSAT 1 22 Dec 19:59:21 20:07:20 80° 80° (E) 20:15:53 437.405
SO-50 22 Dec 20:06:16 20:10:40 56° 118° (ESE) 20:15:14 436.795
AAUSAT CUBESAT 2 22 Dec 20:08:40 20:12:48 58° 74° (ENE) 20:16:59 437.432
Oscar 11 22 Dec 20:09:55 20:13:42 30° 70° (ENE) 20:17:31 145.826/435.025
CUBESAT XI-V 22 Dec 20:16:40 20:18:43 13° 298° (WNW) 20:20:45 437.345
ISS 22 Dec 20:18:20 20:20:40 18° 228° (SW) 20:23:00 145.825
UKube-1 22 Dec 20:19:59 20:23:46 30° 69° (ENE) 20:27:33 .
CANX-2 22 Dec 20:30:41 20:34:46 44° 261° (W) 20:38:54 2200.000
BEESAT 3 22 Dec 20:33:13 20:36:45 26° 48° (NE) 20:40:14 437.485
HO-68 22 Dec 20:33:54 20:40:53 54° 259° (WSW) 20:47:55 435.675
BRITE-PL 22 Dec 20:40:48 20:44:34 33° 263° (W) 20:48:22 437.365/2234.400
RS-15 22 Dec 20:41:18 20:52:37 82° 241° (WSW) 21:04:27 29.354- 29.394
CUBEBUG 2 22 Dec 20:45:33 20:49:33 45° 72° (ENE) 20:53:40 437.445
COMPASS 1 22 Dec 20:45:52 20:49:55 45° 261° (W) 20:54:00 437.405
ZACube-1 22 Dec 20:46:19 20:50:05 33° 70° (ENE) 20:53:57 437.345
DELFI C3 22 Dec 20:48:07 20:52:12 67° 75° (ENE) 20:56:19 145.870
50 SAT 22 Dec 20:49:56 20:52:31 17° 66° (ENE) 20:55:08 437.505
AIST 2 22 Dec 20:53:33 20:56:44 20° 45° (NE) 20:59:52 435.215
SEEDS 22 Dec 20:55:01 20:58:46 30° 264° (W) 21:02:34 437.485
GOMX 1 22 Dec 20:55:38 20:59:22 33° 263° (W) 21:03:10 467.674
VELOX 1 22 Dec 20:56:22 21:00:00 26° 68° (ENE) 21:03:39 145.980
CUTE 1.7 + AOD 2 22 Dec 21:02:04 21:05:26 23° 266° (W) 21:08:51 437.475
DANDE 22 Dec 21:02:33 21:10:06 49° 268° (W) 21:18:19 436.750
ESTCUBE 1 22 Dec 21:08:39 21:11:11 15° 63° (ENE) 21:13:44 437.505/2401.250
DOVE 4 22 Dec 21:10:14 21:13:56 31° 264° (W) 21:17:42 437.250
FUNcube-1 22 Dec 21:11:53 21:16:01 65° 75° (ENE) 21:20:17 145.935
BEESAT 2 22 Dec 21:14:53 21:19:02 57° 55° (NE) 21:23:07 435.950
CINEMA 3 22 Dec 21:17:54 21:21:53 44° 261° (W) 21:26:00 145.822/145.860
PCSat 22 Dec 21:17:56 21:22:36 28° 50° (NE) 21:27:13 145.827
UWE-3 22 Dec 21:18:36 21:22:47 87° 257° (WSW) 21:27:07 435.000/436.395/437.385
UNISAT 6 22 Dec 21:25:40 21:27:56 13° 90° (E) 21:30:11 437.425
DX 1 22 Dec 21:27:07 21:31:17 46° 260° (W) 21:35:29 434.975-435.025
HUMSAT D 22 Dec 21:28:44 21:32:47 58° 74° (ENE) 21:36:56 437.325/437.525
CUBEBUG 1 22 Dec 21:38:13 21:41:52 27° 68° (ENE) 21:45:30 437.445
AISAT 22 Dec 21:40:01 21:44:25 78° 75° (ENE) 21:48:51 437.250
CUSAT 1 22 Dec 21:43:48 21:49:44 23° 276° (W) 21:55:56 437.405
Oscar 11 22 Dec 21:46:24 21:49:52 23° 266° (W) 21:53:22 145.826/435.025
AAUSAT CUBESAT 2 22 Dec 21:47:25 21:48:50 11° 270° (W) 21:50:15 437.432
SO-50 22 Dec 21:48:08 21:51:34 20° 317° (NW) 21:55:06 436.795
ANTELSAT 22 Dec 21:56:21 22:00:26 28° 95° (E) 22:04:29 437.575/2403.000
UKube-1 22 Dec 21:56:27 21:59:55 23° 265° (W) 22:03:24 .
POPSAT HIP 1 22 Dec 22:04:52 22:08:02 20° 94° (E) 22:11:13 437.405
BEESAT 3 22 Dec 22:11:13 22:14:56 32° 246° (WSW) 22:18:36 437.485
YUBILEINY 22 Dec 22:17:00 22:23:56 28° 82° (E) 22:30:51 435.215
BUGSAT 1 22 Dec 22:18:59 22:22:10 22° 95° (E) 22:25:21 437.445
ZACube-1 22 Dec 22:23:28 22:26:33 20° 267° (W) 22:29:41 437.345
50 SAT 22 Dec 22:23:40 22:27:25 38° 262° (W) 22:31:13 437.505
CUBEBUG 2 22 Dec 22:24:14 22:26:33 14° 269° (W) 22:28:54 437.445
TISAT 1 22 Dec 22:25:56 22:29:08 22° 67° (ENE) 22:32:20 437.305
TIGRISAT 22 Dec 22:29:54 22:34:35 62° 101° (E) 22:39:15 435.000
DUCHIFAT 1 22 Dec 22:30:59 22:34:59 39° 98° (E) 22:38:58 145.980
AIST 2 22 Dec 22:31:28 22:35:37 49° 243° (WSW) 22:39:41 435.215
VELOX 1 22 Dec 22:32:39 22:36:28 29° 264° (W) 22:40:19 145.980
SPROUT 22 Dec 22:36:43 22:40:16 26° 69° (ENE) 22:43:50 437.525
ESTCUBE 1 22 Dec 22:43:08 22:47:35 56° 260° (W) 22:52:03 437.505/2401.250
QB50P2 22 Dec 22:46:10 22:50:25 60° 101° (E) 22:54:39 145.880/145.840
FUNcube-1 22 Dec 22:52:45 22:52:51 10° 271° (W) 22:52:57 145.935
O/OREOS (USA 219) 22 Dec 22:54:39 22:57:03 14° 99° (E) 22:59:27 437.305
BEESAT 2 22 Dec 22:54:46 22:56:46 13° 252° (WSW) 22:58:46 435.950
POLYITAN 1 22 Dec 22:55:51 23:00:09 78° 103° (ESE) 23:04:28 437.675
NANOSAT C BR1 22 Dec 22:55:54 23:00:11 77° 103° (ESE) 23:04:27 145.865
RS-15 22 Dec 22:56:06 23:03:17 19° 261° (W) 23:10:41 29.354- 29.394
UNISAT 6 22 Dec 23:00:25 23:05:06 63° 286° (WNW) 23:09:45 437.425
PCSat 22 Dec 23:01:02 23:06:10 45° 248° (WSW) 23:11:16 145.827
HUMSAT D 22 Dec 23:07:50 23:08:59 11° 270° (W) 23:10:08 437.325/437.525
BEESAT 22 Dec 23:08:11 23:09:34 11° 60° (ENE) 23:10:56 436.000
QB50P1 22 Dec 23:10:47 23:15:03 72° 285° (WNW) 23:19:18 145.935-145.965
CUBEBUG 1 22 Dec 23:14:28 23:18:09 27° 264° (W) 23:21:51 437.445
ANTELSAT 22 Dec 23:33:03 23:37:09 30° 291° (WNW) 23:41:15 437.575/2403.000
POPSAT HIP 1 22 Dec 23:40:09 23:44:00 34° 290° (WNW) 23:47:52 437.405
BUGSAT 1 22 Dec 23:54:10 23:57:39 28° 290° (WNW) 00:01:09 437.445
TISAT 1 23 Dec 00:01:02 00:04:46 31° 263° (W) 00:08:32 437.305
DUCHIFAT 1 23 Dec 00:07:37 00:10:33 18° 294° (WNW) 00:13:29 145.980
TIGRISAT 23 Dec 00:08:12 00:10:48 15° 297° (WNW) 00:13:25 435.000
YUBILEINY 23 Dec 00:11:25 00:20:03 63° 281° (WNW) 00:28:42 435.215
AUBIESAT-1 23 Dec 00:12:28 00:16:37 29° 63° (ENE) 00:20:47 437.475
SPROUT 23 Dec 00:12:41 00:16:16 26° 264° (W) 00:19:53 437.525
SWISSCUBE 23 Dec 00:17:30 00:22:12 58° 73° (ENE) 00:26:55 437.505
ITUPSAT 1 23 Dec 00:19:02 00:23:43 55° 72° (ENE) 00:28:25 437.325
QB50P2 23 Dec 00:23:56 00:25:49 13° 297° (WNW) 00:27:42 145.880/145.840
O/OREOS (USA 219) 23 Dec 00:31:38 00:35:58 51° 295° (WNW) 00:40:20 437.305
POLYITAN 1 23 Dec 00:35:08 00:35:27 10° 299° (WNW) 00:35:46 437.675
NANOSAT C BR1 23 Dec 00:35:10 00:35:25 10° 299° (WNW) 00:35:40 145.865
Oscar 19 23 Dec 00:39:11 00:43:24 25° 94° (E) 00:47:35 437.125/150
M-CUBED/EXP-1 PRIME 23 Dec 00:39:13 00:43:59 57° 68° (ENE) 00:48:48 437.505
BEESAT 23 Dec 00:41:53 00:46:41 86° 257° (WSW) 00:51:30 436.000
STARS 23 Dec 00:57:45 01:00:49 19° 65° (ENE) 01:03:53 437.465
ITAMSAT 1 23 Dec 01:01:43 01:04:21 14° 91° (E) 01:06:59 435.822/435.867
KKS-1 23 Dec 01:05:50 01:09:48 33° 70° (ENE) 01:13:48 437.445
Gurwin Techsat 1B 23 Dec 01:12:44 01:13:53 11° 88° (E) 01:15:03 435.225
AUBIESAT-1 23 Dec 01:47:00 01:51:23 34° 259° (WSW) 01:55:50 437.475
VERMONT LUNAR 23 Dec 01:51:35 01:54:48 33° 157° (SSE) 01:58:01 437.305
SWISSCUBE 23 Dec 01:57:48 02:00:25 15° 269° (W) 02:03:03 437.505
ITUPSAT 1 23 Dec 01:59:05 02:01:56 16° 268° (W) 02:04:47 437.325
M-CUBED/EXP-1 PRIME 23 Dec 02:16:04 02:19:14 17° 264° (W) 02:22:26 437.505
YUBILEINY 23 Dec 02:16:05 02:18:53 12° 304° (NW) 02:21:41 435.215
PHONESAT 2.4 23 Dec 02:17:45 02:21:05 34° 157° (SSE) 02:24:24 2401.200-2431.200
Oscar 19 23 Dec 02:18:00 02:22:50 40° 291° (WNW) 02:27:39 437.125/150
HORYU 2 23 Dec 02:29:40 02:33:12 22° 94° (E) 02:36:42 437.375
STARS 23 Dec 02:32:53 02:37:00 40° 261° (W) 02:41:08 437.465
MOZHAYETS 4 23 Dec 02:36:45 02:37:44 11° 61° (ENE) 02:38:44
ITAMSAT 1 23 Dec 02:39:10 02:44:19 68° 287° (WNW) 02:49:26 435.822/435.867
KKS-1 23 Dec 02:43:05 02:46:30 22° 266° (W) 02:49:56 437.445
Gurwin Techsat 1B 23 Dec 02:49:11 02:54:31 88° 284° (WNW) 02:59:50 435.225
AIST 1 23 Dec 03:04:32 03:08:48 73° 82° (E) 03:13:02
VERMONT LUNAR 23 Dec 03:29:23 03:32:55 82° 172° (S) 03:36:27 437.305
AO-7 23 Dec 03:43:23 03:51:23 47° 100° (E) 03:59:18 29.400- 29.500
PHONESAT 2.4 23 Dec 03:55:56 03:59:34 82° 173° (S) 04:03:12 2401.200-2431.200
PRISM 23 Dec 03:59:33 04:00:38 11° 62° (ENE) 04:01:42 437.425
HORYU 2 23 Dec 04:05:49 04:09:55 34° 290° (WNW) 04:13:59 437.375
MOZHAYETS 4 23 Dec 04:09:35 04:14:14 85° 257° (WSW) 04:18:56
GONETS M04 23 Dec 04:11:33 04:19:07 34° 84° (E) 04:26:41
JAS-2 23 Dec 04:26:39 04:31:35 33° 95° (E) 04:36:15 435.910
Gurwin Techsat 1B 23 Dec 04:31:45 04:33:40 12° 302° (WNW) 04:35:35 435.225
SO-50 23 Dec 04:37:54 04:42:39 49° 53° (NE) 04:47:25 436.795
CUTE-I 23 Dec 04:51:31 04:52:07 10° 88° (E) 04:52:43 437.470
VERMONT LUNAR 23 Dec 05:07:41 05:11:12 75° 190° (S) 05:14:43 437.305
STRAND 1 23 Dec 05:17:44 05:22:19 35° 68° (ENE) 05:26:55 437.568
PRISM 23 Dec 05:31:21 05:35:34 71° 258° (WSW) 05:39:47 437.425
PHONESAT 2.4 23 Dec 05:34:38 05:38:15 75° 190° (S) 05:41:52 2401.200-2431.200
AO-7 23 Dec 05:36:23 05:44:01 41° 299° (WNW) 05:51:38 29.400- 29.500
CUBESAT XI-V 23 Dec 05:40:19 05:44:56 64° 74° (ENE) 05:49:32 437.345
Cubesat XI-IV 23 Dec 05:55:12 06:00:19 46° 99° (E) 06:05:24 437.490
GONETS M04 23 Dec 06:06:57 06:15:31 53° 284° (WNW) 06:24:08
JAS-2 23 Dec 06:11:55 06:16:37 29° 295° (WNW) 06:21:03 435.910
SO-50 23 Dec 06:19:12 06:22:53 21° 249° (WSW) 06:26:34 436.795
CUTE-I 23 Dec 06:27:32 06:32:52 90° 104° (ESE) 06:38:12 437.470
VERMONT LUNAR 23 Dec 06:46:13 06:49:15 27° 206° (SSW) 06:52:17 437.305
STRAND 1 23 Dec 06:57:13 07:01:32 27° 264° (W) 07:05:51 437.568
PHONESAT 2.4 23 Dec 07:13:32 07:16:40 28° 206° (SSW) 07:19:48 2401.200-2431.200
CUBESAT XI-V 23 Dec 07:20:46 07:22:46 13° 270° (W) 07:24:46 437.345
Cubesat XI-IV 23 Dec 07:35:58 07:40:05 23° 296° (WNW) 07:44:11 437.490
MaSat-1 23 Dec 07:57:34 07:59:50 86° 294° (WNW) 08:02:02 437.345
HO-68 23 Dec 08:02:11 08:08:20 30° 96° (E) 08:14:26 435.675
CUTE-I 23 Dec 08:10:00 08:12:09 13° 302° (WNW) 08:14:18 437.470
CANX-2 23 Dec 08:16:41 08:20:32 31° 96° (E) 08:24:21 2200.000
UNISAT 6 23 Dec 08:25:57 08:27:29 12° 61° (ENE) 08:29:02 437.425
YUBILEINY 23 Dec 08:28:22 08:31:42 12° 57° (ENE) 08:35:02 435.215
COMPASS 1 23 Dec 08:30:22 08:34:05 29° 96° (E) 08:37:45 437.405
DANDE 23 Dec 08:35:09 08:38:19 27° 86° (E) 08:42:20 436.750
CUBEBUG 2 23 Dec 08:39:13 08:40:39 11° 89° (E) 08:42:05 437.445
